This is the latest recevied weather packets stored in our database for station/object KE2GQQ. If no packets are shown the sender has not sent any weather packets the latest 10 day(s).
| Time | Temp. | Humidity | Pressure | Rain* | Wind** | Luminosity | Snow |
|---|---|---|---|---|---|---|---|
| 1777812617 | 10° C | 54% | 1011.5 hPa | 0 mm | - | 488 W/m² | - |
| 1777812018 | 10° C | 55% | 1011.5 hPa | 0 mm | - | 448 W/m² | - |
| 1777811417 | 8.89° C | 57% | 1011.5 hPa | 0 mm | - | 411 W/m² | - |
| 1777810837 | 8.33° C | 57% | 1011.5 hPa | 0 mm | - | 185 W/m² | - |
| 1777809638 | 7.78° C | 59% | 1011.5 hPa | 0 mm | - | 116 W/m² | - |
| 1777804816 | 7.22° C | 65% | 1010.8 hPa | 0 mm | - | 22 W/m² | - |
| 1777793458 | 8.33° C | 59% | 1010.1 hPa | 0 mm | - | 0 W/m² | - |
| 1777786217 | 10° C | 55% | 1010.6 hPa | 0 mm | - | 0 W/m² | - |
| 1777784418 | 10° C | 54% | 1011 hPa | 0 mm | - | 0 W/m² | - |
| 1777783817 | 10.56° C | 58% | 1010.9 hPa | 0 mm | - | 0 W/m² | - |
| 1777783218 | 10.56° C | 57% | 1010.9 hPa | 0 mm | - | 0 W/m² | - |
| 1777779616 | 10° C | 66% | 1010.9 hPa | 0 mm | - | 0 W/m² | - |
| 1777777216 | 10.56° C | 61% | 1010.9 hPa | 0 mm | - | 0 W/m² | - |
| 1777773017 | 11.11° C | 59% | 1011 hPa | 0 mm | - | 0 W/m² | - |
| 1777767615 | 11.67° C | 65% | 1010.4 hPa | 0 mm | - | 0 W/m² | - |
| 1777765216 | 13.33° C | 62% | 1010.1 hPa | 0 mm | - | 5 W/m² | - |
| 1777763416 | 15° C | 54% | 1009.9 hPa | 0 mm | - | 17 W/m² | - |
| 1777760417 | 16.11° C | 46% | 1009.7 hPa | 0 mm | - | 143 W/m² | - |
| 1777755618 | 15° C | 56% | 1009.5 hPa | 0 mm | - | 67 W/m² | - |
| 1777748417 | 15.56° C | 53% | 1010.7 hPa | 0 mm | - | 206 W/m² | - |
| 1777737037 | 13.33° C | 71% | 1011.9 hPa | 0 mm | - | 137 W/m² | - |
| 1777735218 | 12.78° C | 73% | 1011.9 hPa | 0 mm | - | 149 W/m² | - |
| 1777734618 | 12.78° C | 75% | 1012 hPa | 0 mm | - | 111 W/m² | - |
| 1777728616 | 12.22° C | 78% | 1012.3 hPa | 0 mm | - | 182 W/m² | - |
| 1777726217 | 11.11° C | 83% | 1012.3 hPa | 0 mm | - | 130 W/m² | - |
* Rain latest hour (hover to see other rain measurements)
** Current wind speed in m/s (hover to see current wind gust speed)